Showing default

KAZSCISAT-1, 43787

Orbit data source: Space-Track

KAZSCISAT-1, 43787 is a payload satellite in SSO that was launched on Mon, 03 Dec 2018 UTC via an FALCON 9 launch vehicle from the Air Force Western Test Range (AFWTR). Payload-class satellites include a variety of spacecraft equipped with specific instruments for various scientific and technological missions. These include communications satellites like Starlink; space stations such as the ISS; scientific satellites like the Hubble; Earth observation satellites from companies like Planet Labs, Umbra, and HawkEye 360; GPS; miniature CubeSats for education and research; and military/defense satellites.

Loading next visibility...
Identifier
43787, 2018-099AF
Orbit
SSO
Last TLE update
18 hours ago
Origin
Manufacturer
Ghalam LLP
Mission
Operational Commercial Science
Bus & Motor
CUBESAT 3U, Unknown motor
Mass
4 kg wet, 4 kg dry
Launch date (UTC)
2018-12-03 (6 years ago)
Launch vehicle
FALCON 9
Launch site
Air Force Western Test Range (AFWTR)
Object type
Payload
Rocket body
Debris
Shape & HBR
Box, 0.3 m
Radar Cross Section
0.035 m², Small (<0.1 m²)

Expand to show TLE details & history

TLE from 18 hours ago
0 KAZSCISAT-1
1 43787U 18099AF  25138.72265436  .00179917  00000-0  18055-2 0  9995
2 43787  97.4463 208.3041 0006273 200.1430 159.9582 15.64900447354304
Epoch: 2025-05-18T17:20Z
TLE epoch observation values (Epoch: 2025-05-18T17:20:37.336Z)
Latitude
-0.0001°
Longitude
71.50301°
Altitude
380.655 km
Speed
7.679 km/s
True Right ascension
13h 53m 12s
True Declination
0° 00' 00"
Sunlit
Object was in full shadow at epoch
Visualization orbit readout
Latitude
32.2324°
Longitude
-103.02582°
Altitude
374.376 km
Speed
7.69 km/s
Apparent Right ascension
04h 42m 28s
Apparent Declination
-3° 27' 54"
Sunlit
Object is in daylight
Visualization observer readout
Local Sidereal Time
19:40:07
Azimuth
59.518° ENE
Elevation
-35.85°
Doppler factor
1
Orbital elements
Apogee altitude
374.666 km
Perigee altitude
366.2 km
Semi-major axis
6,748.57 km
Eccentricity
0.00063
Inclination
97.4463°
RAAN
208.3041°
Arg. of periapsis
200.143°
True anomaly
Unknown
Mean anomaly
159.9582°
Eccentric anomaly
Unknown
Mean motion
3.91494 °/min
Orbital period
91.96 mins
BSTAR
0.0018055
Loading maneuver chart data...
Loading SW <> Apogee altitude chart data...
Loading historical data...
Loading historical data...
Loading historical data...
Loading historical data...
Loading historical data...
Loading historical data...
Loading historical data...

KAZSCISAT-1 Visibility forecast

Observer location: undefined°, undefined°

Span
Click to sort rows by Start time (UTC) header in descending order
Start Az.
Max El. time (UTC)
Max El. Az.
Max El.
End time (UTC)
End Az.
4 mins2025-05-20 04:47:08.079Z181.441° SSW2025-05-20 04:48:08.079Z222.914° SW42.589°2025-05-20 04:51:08.079Z343.264° N
|